Hourly Data Report for May 08, 2021

ATIKOKAN (AUT)
ONTARIO
Current Station Operator: ECCC - MSC

48°45'40.000" N
91°37'41.000" W
389.30 m
6020LPQ
71747
WCH

Download Data

Hourly Data (May 2021)
Hourly Data Report for May 8, 2021
TIME
LST
Temp Definition
°C
Dew Point Definition
°C
Rel Hum Definition
%
Precip. Amount Definition
mm

Wind Dir Definition
10's deg

Wind Spd Definition
km/h
Visibility Definition
km
Stn Press Definition
kPa
Hmdx Definition


Wind Chill Definition


Weather Definition


00:00 -1.6 -2.2 95 0.0 0 1   97.20   -2 LegendNANA
01:00 -2.3 -2.8 96 0.0 0 1   97.21   -3 LegendNANA
02:00 -2.7 -3.2 96 0.0   0   97.21     LegendNANA
03:00 -3.1 -3.7 95 0.0 0 1   97.22   -4 LegendNANA
04:00 -3.6 -4.2 96 0.0 8 2   97.21   -4 LegendNANA
05:00 -4.0 -4.5 96 0.0 0 1   97.25   -4 LegendNANA
06:00 -2.1 -2.5 97 0.0   0   97.26     LegendNANA
07:00 3.5 -0.6 75 0.0 7 5   97.28     LegendNANA
08:00 6.0 -1.5 58 0.0 7 6   97.28     LegendNANA
09:00 7.7 -1.0 54 0.0 6 6   97.25     LegendNANA
10:00 8.5 -0.8 52 0.0 2 7   97.23     LegendNANA
11:00 9.4 -4.8 36 0.0 3 8   97.17     LegendNANA
12:00 10.1 -3.7 38 0.0 30 8   97.19     LegendNANA
13:00 10.9 -3.6 36 0.0 1 7   97.15     LegendNANA
14:00 11.9 -5.4 29 0.0 35 11   97.11     LegendNANA
15:00 12.2 -6.2 27 0.0 36 9   97.06     LegendNANA
16:00 11.5 -7.6 26 0.0 2 8   97.03     LegendNANA
17:00 11.2 -5.5 30 0.0 3 11   97.01     LegendNANA
18:00 9.9 -7.0 30 0.0 3 7   97.06     LegendNANA
19:00 7.9 -6.7 35 0.0 2 7   97.11     LegendNANA
20:00 4.9 -6.3 44 0.0 35 3   97.19     LegendNANA
21:00 2.0 -4.3 63 0.0 1 2   97.24     LegendNANA
22:00 -0.2 -2.9 82 0.0   0   97.24     LegendNANA
23:00 -1.5 -2.7 92 0.0 7 1   97.26   -2 LegendNANA

Notes on Data Quality.

Legend

  • E = Estimated
  • M = Missing
  • NA = Not Available*
  • [empty] = Indicates an unobserved value
Date modified: